TIME,DELAY(SENSOR),PRES,T(CTD),SAL,OXYGEN,RAWTEMP,T(OPTODE),TCPHASE,TURBIDITY,TURBIDITY_GAIN,FLUOR,BETA,CDOM,ED411.5,ED443.8,ED489.6,PAR,COMP,TILT,TILTY(TILT),CHECK
1340779691,6468,273.8200073242187500,5.7775998115539550,34.8897018432617200,312.2897949218750000,628.3670043945312000,5.7507228851318360,33.7141990661621100,16,3,49,108,65,2147634737,2147395817,2147282115,2148320287,1312,2,-4,2565
1340779752,6468,269.5700073242187500,5.8118000030517580,34.8913993835449200,309.4619140625000000,627.0281982421875000,5.7939209938049320,33.7975196838378900,16,3,48,106,65,2147636457,2147394216,2147282152,2148320690,910,1,-4,24480
1340779813,6468,265.2200012207031000,5.7397999763488770,34.8768005371093750,309.9413146972656000,631.4143066406250000,5.6523251533508300,33.8578491210937500,16,3,48,107,66,2147635286,2147394701,2147282646,2148316461,580,2,-4,54295
1340779874,6469,260.8200073242187500,5.6297001838684080,34.8563995361328100,316.9137878417969000,632.2280273437500000,5.6260337829589840,33.6106300354003900,15,3,48,107,64,2147634010,2147393498,2147282866,2148318554,135,2,-4,55608
1340779935,6470,256.5199890136719000,5.6023001670837400,34.8482017517089840,321.4146118164062500,632.6574707031250000,5.6121540069580080,33.4525489807128900,16,3,48,106,64,2147636356,2147397019,2147283743,2148319917,3218,2,-4,12130
1340779996,6469,252.2500000000000000,5.5296998023986820,34.8334999084472660,324.4655151367187500,635.6342163085938000,5.5159049034118650,33.3950004577636700,16,3,48,106,64,2147633284,2147392712,2147281412,2148319373,2945,1,-4,60034
1340780057,6466,248.0899963378906200,5.5377998352050780,34.8292007446289060,327.8431091308594000,635.4318237304688000,5.5224528312683105,33.2701492309570300,16,3,48,105,64,2147635898,2147393210,2147281485,2148319858,2672,1,-4,33098
1340780118,6467,244.0200042724609400,5.5254001617431640,34.8235015869140600,331.2446899414062500,635.8729248046875000,5.5081830024719240,33.1569709777832000,16,3,49,106,64,2147636255,2147394984,2147283597,2148319322,2308,2,-4,16685
1340780179,6468,240.0099945068359400,5.5387997627258300,34.8218002319335940,334.4187927246094000,635.5411987304688000,5.5189151763916020,33.0397491455078100,31,3,50,106,63,2147637897,2147394097,2147280570,2148317613,2091,2,-4,61788
1340780240,6467,236.1699981689453000,5.5416998863220215,34.8219985961914060,335.4307861328125000,635.4301757812500000,5.5225028991699220,33.0024909973144500,16,3,49,106,64,2147634294,2147392498,2147282874,2148321462,1870,2,-4,46871
1340780301,6468,232.4499969482422000,5.5247998237609860,34.8176002502441400,334.9927978515625000,635.7681884765625000,5.5115699768066410,33.0238685607910160,16,3,49,109,64,2147634925,2147395085,2147284022,2148319533,1708,2,-4,12665
1340780364,6467,228.8099975585937500,5.5532999038696290,34.8180999755859400,333.7554016113281000,635.0551147460938000,5.5346369743347170,33.0541610717773440,16,3,50,108,65,2147634971,2147388470,2147282856,2148317933,1407,1,-4,1335
1340780425,6467,225.4799957275390600,5.5658001899719240,34.8191986083984400,332.9397888183594000,634.7064208984375000,5.5459160804748535,33.0767517089843750,16,3,48,109,64,2147636328,2147393865,2147281531,2148320607,1085,0,-4,7033
1340780488,6468,222.1999969482422000,5.5718002319335940,34.8170013427734400,332.3564147949219000,634.6535034179688000,5.5476260185241700,33.0962715148925800,16,3,48,107,64,2147637942,2147394038,2147282696,2148319314,704,2,-4,32238
1340780549,6468,219.1799926757812500,5.4994997978210450,34.8013000488281250,332.0021972656250000,636.4512939453125000,5.4894700050354000,33.1406593322753900,16,3,49,106,64,2147637403,2147394582,2147281037,2148317896,139,2,-4,48207
1340780613,6468,216.2100067138672000,5.5248999595642090,34.7979011535644500,331.1715087890625000,636.0101928710938000,5.5037422180175780,33.1622085571289060,16,3,49,108,62,2147634564,2147397339,2147281010,2148317673,3495,1,-4,55888
1340780674,6467,213.5500030517578000,5.5190000534057620,34.7937011718750000,330.6799926757812500,636.1157836914062000,5.5003237724304200,33.1812705993652340,16,3,50,109,65,2147636543,2147396036,2147280703,2148318674,3230,2,-4,43772
1340780737,6468,210.8899993896484400,5.5243000984191895,34.7925987243652340,329.2076110839844000,635.9462890625000000,5.5058097839355470,33.2305908203125000,16,3,48,109,66,2147637599,2147393842,2147282180,2148317604,2744,2,-4,60319
1340780798,6467,208.3600006103515600,5.5253000259399410,34.7896003723144500,327.1788940429687500,635.9287719726562000,5.5063757896423340,33.3027381896972660,16,3,49,108,65,2147635436,2147394285,2147283953,2148318943,2581,2,-4,10783
1340780861,6467,205.8600006103515600,5.5251002311706540,34.7859992980957000,326.2210083007812500,635.9188232421875000,5.5066990852355960,33.3365287780761700,16,3,50,106,64,2147640722,2147395007,2147280058,2148316209,2526,0,-4,34991
1340780922,6467,203.5299987792968800,5.5272998809814450,34.7840995788574200,329.9572143554687500,635.8643798828125000,5.5084571838378910,33.2027015686035160,16,3,50,110,64,2147636634,2147394687,2147281270,2148316607,2259,2,-4,4905
1340781013,6467,199.3800048828125000,5.5984997749328610,34.7859001159668000,335.2298889160156000,633.8497924804688000,5.5736141204833980,32.9814491271972660,16,3,49,109,64,2147636127,2147393545,2147280863,2148320690,1735,2,-4,18571
1340781074,6467,195.7200012207031200,5.6128997802734375,34.7862014770507800,337.6711120605469000,633.2844238281250000,5.5918941497802730,32.8866882324218750,16,3,48,110,64,2147636708,2147395510,2147284973,2148319551,1467,2,-4,61576
1340781137,6467,191.9299926757812500,5.6321997642517090,34.7859001159668000,338.4057006835937500,632.7423095703125000,5.6094131469726560,32.8516807556152340,16,3,50,113,63,2147635972,2147392077,2147283848,2148319112,1336,2,-4,51392
1340781198,6468,188.2899932861328000,5.6561999320983890,34.7835998535156250,338.3992004394531000,632.0197143554688000,5.6327648162841800,32.8393592834472660,16,3,49,111,64,2147637206,2147393535,2147281329,2148318719,871,2,-4,2011
1340781262,6468,184.4600067138672000,5.6654000282287600,34.7815017700195300,338.1517028808594000,631.7368774414062000,5.6419029235839840,32.8429489135742200,10,3,48,113,64,2147635862,2147395825,2147282336,2148318975,247,2,-4,64509
1340781323,6469,180.8300018310547000,5.5964999198913570,34.7649002075195300,335.0647888183594000,633.5230712890625000,5.5841770172119140,32.9814186096191400,16,3,50,110,64,2147635944,2147395423,2147282806,2148317393,3269,1,-4,59087
1340781386,6467,177.0500030517578000,5.5960998535156250,34.7625999450683600,332.3869018554687500,633.5870971679688000,5.5821061134338380,33.0761299133300800,16,3,50,108,64,2147635661,2147393499,2147281521,2148320443,2816,2,-4,6969
1340781447,6467,173.3999938964843800,5.6255002021789550,34.7597007751464840,330.4281921386719000,632.7457275390625000,5.6093039512634280,33.1299781799316400,16,3,50,107,64,2147635442,2147394756,2147281668,2148318253,2579,1,-4,36694
1340781510,6469,169.6399993896484400,5.6638998985290530,34.7613983154296900,328.1239929199219000,631.6358032226562000,5.6451678276062010,33.1919403076171900,16,3,50,106,64,2147636200,2147394051,2147280694,2148319775,2199,2,-4,40798
1340781571,6468,165.8999938964843800,5.6742000579833980,34.7601013183593750,326.6843872070312500,631.2943115234375000,5.6562018394470215,33.2376213073730500,16,3,50,107,64,2147635218,2147393476,2147280790,2148318870,2036,2,-4,53810
1340781658,6467,161.1499938964843800,5.7086000442504880,34.7559013366699200,326.2576904296875000,630.3347778320312000,5.6871929168701170,33.2356681823730500,15,3,49,106,64,2147634609,2147392438,2147284891,2148321878,1706,2,-4,49107
1340781719,6469,158.7899932861328000,5.7375998497009280,34.7549018859863300,326.5927124023437500,629.5100708007812000,5.7138209342956540,33.2089805603027340,16,3,50,104,65,2147638555,2147393558,2147283994,2148321120,1535,0,-4,57010
1340781782,6469,156.5000000000000000,5.7536001205444340,34.7537994384765600,327.0351867675781000,628.9647216796875000,5.7314300537109375,33.1833305358886700,15,3,50,105,66,2147635624,2147393526,2147284255,2148317530,1489,0,-4,36191
1340781843,6469,154.3800048828125000,5.7716999053955080,34.7532997131347660,326.8550109863281000,628.4497070312500000,5.7480530738830570,33.1806602478027340,16,3,50,107,63,2147632178,2147392895,2147285952,2148319935,1257,0,-4,59647
1340781931,6466,150.5899963378906200,5.7891998291015625,34.7527008056640600,326.9054870605469000,627.8176269531250000,5.7684521675109860,33.1679496765136700,16,3,50,107,66,2147634367,2147391442,2147291711,2148320159,823,2,-4,34811
1340781992,6467,146.8899993896484400,5.8334999084472660,34.7521018981933600,327.2571105957031000,626.5236816406250000,5.8101959228515625,33.1324691772460940,16,3,50,108,65,2147636872,2147395625,2147291259,2148320250,450,2,-4,50539
1340782055,6467,143.0399932861328000,5.8520998954772950,34.7533988952636700,327.6940917968750000,625.8278198242188000,5.8326420783996580,33.1045188903808600,16,3,50,106,64,2147635427,2147393873,2147291392,2148320301,3487,2,-4,43838
1340782116,6467,139.4400024414062500,5.8973999023437500,34.7555999755859400,328.2203063964844000,624.2396240234375000,5.8838419914245605,33.0577583312988300,16,3,51,105,65,2147635944,2147393736,2147290038,2148321041,3134,1,-4,61451
1340782179,6469,135.8000030517578000,5.9388999938964840,34.7537994384765600,328.3734130859375000,623.2517700195312000,5.9156780242919920,33.0345001220703100,16,3,50,108,65,2147635995,2147392301,2147291944,2148319738,2802,2,-4,10552
1340782240,6468,132.3099975585937500,5.9629998207092285,34.7549018859863300,328.8624877929687500,622.5831909179688000,5.9372200965881350,33.0056190490722660,16,3,50,106,64,2147636950,2147392172,2147295130,2148319835,2595,0,-4,2385
1340782303,6467,128.7400054931640600,5.9987001419067380,34.7500000000000000,325.2051086425781000,620.8488769531250000,5.9930729866027830,33.1057395935058600,16,3,50,103,65,2147636466,2147392648,2147292922,2148316776,2489,0,-4,42610
1340782364,6468,125.2600021362304700,6.0338997840881350,34.7518997192382800,325.1834106445312500,620.2954101562500000,6.0108947753906250,33.0966606140136700,16,3,50,104,64,2147637133,2147393901,2147296282,2148320995,2250,2,-4,12517
1340782427,6467,121.6299972534179700,6.0787000656127930,34.7513008117675800,323.6713867187500000,618.9503173828125000,6.0541858673095700,33.1274490356445300,16,3,50,104,64,2147638093,2147391547,2147294929,2148322152,2031,2,-4,58943
1340782488,6468,118.0000000000000000,6.0869998931884770,34.7503013610839840,321.9444885253906000,618.5292968750000000,6.0677337646484375,33.1823997497558600,16,3,50,103,66,2147634317,2147393777,2147297937,2148318820,1929,2,-4,58915
1340782552,6467,114.2200012207031200,6.1559000015258790,34.7518005371093750,321.3746032714844000,616.6699218750000000,6.1275410652160645,33.1705818176269500,15,3,50,105,64,2147635748,2147395537,2147306006,2148320434,1576,0,-4,43508
1340782613,6467,110.6399993896484400,6.1431999206542970,34.7487983703613300,320.7008972167969000,616.7584838867188000,6.1246910095214840,33.1965713500976560,16,3,50,102,65,2147637718,2147392387,2147310746,2148324209,1533,0,-4,37878
1340782676,6468,106.9499969482421900,6.1546998023986820,34.7467994689941400,318.8566894531250000,616.4296264648438000,6.1352691650390625,33.2580795288085940,16,3,50,100,64,2147635386,2147394354,2147315473,2148323186,1288,2,-4,63188
1340782737,6469,103.4700012207031200,6.1876001358032230,34.7463989257812500,318.3528137207031000,615.4257812500000000,6.1675357818603520,33.2592506408691400,16,3,50,101,64,2147632836,2147396744,2147323903,2148324712,853,1,-4,29872
1340782800,6467,100.0999984741211000,6.2260999679565430,34.7459983825683600,318.1323852539062500,614.3449096679688000,6.2022762298583980,33.2483711242675800,16,3,50,103,65,2147635954,2147395254,2147334010,2148327697,125,2,-4,7048
1340782861,6466,97.1900024414062500,6.2695999145507810,34.7439002990722660,318.5445861816406000,613.0122070312500000,6.2450900077819820,33.2100410461425800,16,3,52,102,64,2147635286,2147398728,2147344986,2148329795,65,2,-4,395
1340782925,6468,94.6299972534179700,6.2927999496459960,34.7440986633300800,319.3558959960937500,612.1851196289062000,6.2716541290283200,33.1656990051269500,16,3,52,100,64,2147634783,2147399560,2147353407,2148329910,3058,1,-4,24040
1340782986,6467,92.5400009155273400,6.3386001586914060,34.7394981384277340,319.8363952636719000,610.8513183593750000,6.3144741058349610,33.1246910095214840,15,3,52,103,64,2147635643,2147402358,2147355395,2148330504,2915,1,-4,13955
1340783076,6468,89.2500000000000000,6.3625998497009280,34.7363014221191400,320.8270874023437500,609.9940795898438000,6.3419861793518070,33.0738410949707000,16,3,53,102,64,2147636995,2147400977,2147361023,2148332227,2338,2,-4,21646
1340783137,6468,86.3099975585937500,6.3931999206542970,34.7313995361328100,322.9686889648437500,608.9968261718750000,6.3739848136901855,32.9791984558105500,16,3,54,104,64,2147637370,2147404625,2147360283,2148332209,2053,0,-4,46112
1340783201,6467,83.2900009155273400,6.4091000556945800,34.7262992858886700,325.2508850097656000,608.5438232421875000,6.3885169029235840,32.8890495300293000,16,3,55,104,65,2147633618,2147403410,2147364196,2148334143,1708,2,-4,32572
1340783262,6466,80.3199996948242200,6.4593000411987305,34.7181015014648440,327.6253051757812500,607.0432128906250000,6.4366378784179690,32.7787895202636700,16,3,56,104,64,2147635734,2147401467,2147363762,2148336004,1364,2,-4,59110
1340783326,6468,77.0199966430664000,6.5135002136230470,34.7215003967285160,328.0461120605469000,604.9835815429688000,6.5026469230651855,32.7281799316406250,16,3,58,106,64,2147636008,2147401549,2147370966,2148338856,1059,2,-4,3289
1340783387,6467,73.7300033569336000,6.5513000488281250,34.7107009887695300,328.3168945312500000,604.1569824218750000,6.5291309356689450,32.7043190002441400,16,3,57,104,64,2147640749,2147406348,2147385160,2148340223,776,2,-4,55798
1340783451,6467,70.0500030517578100,6.6491999626159670,34.7093009948730500,330.7565002441406000,602.4846801757812000,6.5826869010925290,32.5897483825683600,16,3,58,106,65,2147635762,2147410043,2147407912,2148346921,3071,2,-4,10988
1340783512,6468,66.3300018310546900,6.7755999565124510,34.7219009399414060,328.1253967285156000,597.3419799804688000,6.7472128868103030,32.5944290161132800,16,3,61,112,65,2147638610,2147413978,2147442765,2148359561,2628,2,-4,38994
1340783599,6468,61.2900009155273440,6.8682999610900880,34.7135009765625000,325.9921875000000000,594.3660888671875000,6.8423061370849610,32.6194114685058600,16,3,64,109,65,2147641120,2147425896,2147509229,2148377709,1926,0,-4,65436
1340783660,6468,58.7000007629394500,6.9361000061035160,34.7126007080078100,326.6199035644531000,593.9865722656250000,6.8544239997863770,32.5907096862793000,16,3,67,113,65,2147643131,2147432296,2147538285,2148387725,1611,2,-4,36214
1340783724,6468,56.2599983215332000,6.9654998779296875,34.7173995971679700,326.2148132324219000,592.0833129882812000,6.9151921272277830,32.5729789733886700,16,3,66,117,64,2147646454,2147438436,2147570637,2148396026,1136,2,-4,42420
1340783785,6469,54.2099990844726560,6.9788999557495120,34.7140007019043000,325.9461975097656000,590.9398193359375000,6.9516849517822270,32.5629692077636700,16,3,64,111,64,2147646642,2147446134,2147600566,2148411309,955,1,-4,13689
1340783872,6468,50.8899993896484400,7.0830998420715330,34.7043991088867200,328.7724914550781000,587.7332153320312000,7.0539531707763670,32.4089508056640600,15,3,69,116,65,2147651446,2147459780,2147650284,2148431190,1042,1,-4,25719
1340783933,6469,47.7999992370605500,7.1559000015258790,34.6988983154296900,330.1198120117187500,585.2133178710938000,7.1342530250549320,32.3196296691894500,16,3,73,125,65,2147655084,2147468448,2147701860,2148454011,220,2,-4,17440
1340783997,6466,44.5999984741210940,7.2748999595642090,34.6944007873535160,330.5968933105469000,581.7645263671875000,7.2440609931945800,32.2450714111328100,16,3,75,126,66,2147662723,2147483903,2147772443,2148490852,3270,1,-4,15477
1340784058,6468,41.5900001525878900,7.4200000762939450,34.6949996948242200,330.4848022460937500,575.9713134765625000,7.4282670021057130,32.1529083251953100,16,3,80,132,65,2147669828,2147501082,2147856346,2148530377,2994,0,-4,21349
1340784122,6468,38.4000015258789060,7.7915000915527340,34.6836013793945300,329.2681884765625000,566.1182861328125000,7.7408771514892580,32.0326690673828100,16,3,99,142,65,2147686134,2147538554,2148009306,2148603245,2724,2,-5,26331
1340784183,6469,35.7000007629394500,7.9643001556396480,34.6879005432128900,330.3836059570312500,560.4949951171875000,7.9189128875732420,31.9022102355957030,17,3,110,143,65,2147712113,2147598486,2148216178,2148698760,2845,0,-4,18499
1340784247,6470,33.0400009155273440,8.5433998107910160,34.6823997497558600,329.8359985351562500,548.3723144531250000,8.3018083572387700,31.7252597808837900,24,3,136,167,66,2147747346,2147661284,2148419643,2148803003,2904,2,-4,19022
1340784308,6468,31.0900001525878900,8.8776998519897460,34.6759986877441400,330.0183105468750000,533.1336059570312000,8.7814102172851560,31.4765491485595700,28,3,174,202,65,2147771026,2147713919,2148596287,2148891158,2191,2,-4,6754
1340784399,6470,29.0900001525878900,9.1476001739501950,34.6776008605957000,332.3375854492187500,522.7199707031250000,9.1081027984619140,31.2339897155761720,26,3,193,207,65,2147771309,2147653243,2148101366,2148654372,2135,0,-4,41375
1340784460,6470,27.0400009155273440,9.4141998291015620,34.6645011901855500,329.9950866699219000,514.2606201171875000,9.3728809356689450,31.1828193664550780,30,3,218,220,66,2147871620,2147864694,2149035835,2149157224,2272,0,-4,34173
1340784550,6471,23.9500007629394530,10.0645999908447270,34.6559982299804700,328.7363891601562500,493.3778076171875000,10.0242996215820310,30.9069004058837900,95,3,1033,449,68,2147995492,2147968223,2148850623,2149022176,1981,1,-4,64706
1340784611,6472,21.3199996948242200,10.2923002243042000,34.6591987609863300,331.5263977050781000,484.6476135253906000,10.2957296371459960,30.6807899475097660,309,3,1900,545,68,2148809092,2149432936,2153106477,2151057516,946,2,-4,24295
1340784675,6471,18.8400001525878900,10.7918996810913090,34.6651000976562500,337.4653930664062500,469.7228088378906000,10.7586002349853520,30.2614498138427730,80,3,1375,577,70,2149851734,2151019030,2156506385,2152566449,238,2,-5,27019
1340784736,6471,16.6399993896484380,10.8724002838134770,34.6691017150878900,342.9755859375000000,464.2243041992187500,10.9287796020507810,30.0012493133544920,73,3,1265,622,69,2151944639,2154130294,2162320557,2155094226,301,1,-5,55125
1340784815,6469,13.3699998855590820,11.6988000869750980,34.6843986511230500,348.4158020019531000,439.6805114746094000,11.6862201690673830,29.4754199981689450,75,3,691,513,68,2157059926,2160725878,2172988227,2160085147,2698,3,-4,9102
1340784888,6470,9.7700004577636720,12.8257999420166020,34.6907005310058600,346.0137939453125000,403.5523071289062500,12.7952995300292970,29.0472297668457030,84,3,446,511,65,2167893906,2174016753,2191671986,2169924941,2714,11,-6,46191
1340784952,6471,7.3000001907348630,12.9862003326416020,34.7099990844726560,342.9801025390625000,397.3023986816406000,12.9865303039550780,29.0573806762695300,89,3,423,586,62,2179514866,2187843236,2210768360,2180602276,3180,8,-6,54787
1340785004,6471,5.5000000000000000,13.0197000503540040,34.7127990722656250,342.2878112792969000,396.1124877929687500,13.0229196548461910,29.0629291534423830,93,3,374,510,62,2194206664,2206307424,2234594838,2195242294,2400,-1,11,1447
1340785052,6469,3.6199998855590820,13.0136995315551760,34.7131004333496100,342.2738952636719000,396.3100891113281000,13.0168800354003900,29.0661792755126950,92,3,265,510,63,2214897796,2230667734,2261828073,2218276918,1242,7,17,57948
1340785118,6471,1.4400000572204590,0.0000000000000000,0.0000000000000000,342.3583068847656000,396.2872009277344000,13.0175800323486330,29.0630397796630860,88,3,229,492,62,2253448168,2271161562,2302708260,2270179693,3130,-5,-11,65439
1340785152,6469,0.1000000014901161,0.0000000000000000,0.0000000000000000,341.9592895507812500,396.2366027832031000,13.0191202163696290,29.0751399993896500,13,3,189,435,62,2257991849,2278478354,2309772292,2277086642,838,21,17,3591
